ATLAS 5 CENTAUR DEB, 46464

Orbit data source: Space-Track

ATLAS 5 CENTAUR DEB, 46464 is space debris in HEO originally from a launch on Wed, 17 Sep 2014 UTC launched from the Air Force Eastern Test Range (AFETR). Debris objects in space refer to the collection of defunct objects orbiting the Earth. Examples of debris include non-operational satellites, rocket bodies, and fragments generated from explosions, collisions, or faulty payload assembly.

Loading next visibility...
Identifier
46464, 2014-055CL
Orbit
HEO
Country
Flag of USUS
Related business
Flag of USUnited Launch Alliance/Lockheed Martin (US)
Manufacturer
Unknown
Mission
Spacecraft
Bus & Motor
Unknown
Mass
Unknown
Launch date (UTC)
2014-09-17 (12 years ago)
Launch vehicle
Unknown
Launch site
Air Force Eastern Test Range (AFETR)
Object type
Payload
Rocket body
Debris
Shape & HBR
Unknown shape, 1.1 m
Radar Cross Section
Medium (>0.1 m² and <1 m²)

Expand to show TLE details & history
Last TLE update: 4 days ago

TLE from 4 days ago
0 ATLAS 5 CENTAUR DEB
1 46464U 14055CL  26169.93956866 -.00000049  00000-0  00000-0 0  9999
2 46464  19.7395 151.8579 4811430 149.6370 250.2288  1.82516282 43871
Epoch: 2026-06-18T22:32Z
TLE epoch observation values (Epoch: 2026-06-18T22:32:58.732Z)
Latitude
Longitude
-93.5797°
Altitude
30,763.801 km
Speed
2.715 km/s
True Right ascension
10h 07m 21s
True Declination
0° 00' 00"
Sunlit
Object was in daylight at epoch
Visualization orbit readout
Latitude
Unknown
Longitude
Unknown
Altitude
Unknown
Speed
Unknown
Apparent Right ascension
Unknown
Apparent Declination
Unknown
Sunlit
N/A
Visualization observer readout
Local Sidereal Time
00:50:00
Azimuth
Unknown
Elevation
Unknown
Doppler factor
Unknown
Orbital elements
Apogee altitude
35,516.726 km
Perigee altitude
8,297.99 km
Semi-major axis
28,285.495 km
Eccentricity
0.48114
Inclination
19.7395°
RAAN
151.8579°
Arg. of periapsis
149.637°
True anomaly
210.40507°
Mean anomaly
250.2288°
Eccentric anomaly
229.32204°
Mean motion
0.45624 °/min
Orbital period
789.05 mins
BSTAR
0
Loading maneuver chart data...
Computing Atmospheric mass density...

Documentation

Showing up to 5 results
|